Location: Newark
(52.4787°S, 179.0532°W)
Time: 10:10:11
(UTC+00:00)

Envisat - Pass Details

Date: 30 October 2019
Orbit: 764 x 766 km, 98.1° (Epoch: 22 November)

Event Time Altitude Azimuth Distance (km) Brightness Sun altitude
Rises 15:33:49 0° 83° (E) 3,251 7.1 -6.9°
Reaches altitude 10° 15:37:44 10° 113° (ESE) 2,334 7.2 -6.4°
Maximum altitude 15:39:29 12° 133° (SE) 2,215 7.0 -6.1°
Drops below altitude 10° 15:41:15 10° 153° (SSE) 2,342 6.6 -5.9°
Sets 15:45:11 0° 183° (S) 3,278 6.7 -5.4°
